Time,TemperatureF,DewpointF,PressureIn,WindDirection,WindDirectionDegrees,WindSpeedMPH,WindSpeedGustMPH,Humidity,HourlyPrecipIn,Conditions,Clouds,dailyrainin,SoftwareType,DateUTC
2013-06-16 00:02:00,67.0,64.0,29.90,ESE,115,0.0,0.0,90,0.00,,,0.02,,2013-06-16 04:02:00,
2013-06-16 00:12:00,67.0,64.0,29.90,ESE,115,0.0,0.0,90,0.00,,,0.02,,2013-06-16 04:12:00,
2013-06-16 00:23:00,67.0,64.0,29.90,SSE,150,0.0,1.0,91,0.00,,,0.02,,2013-06-16 04:23:00,
2013-06-16 00:34:00,66.0,63.0,29.89,SSE,150,0.0,2.0,91,0.00,,,0.02,,2013-06-16 04:34:00,
2013-06-16 00:42:00,66.0,63.0,29.89,SSE,150,0.0,2.0,91,0.00,,,0.02,,2013-06-16 04:42:00,
2013-06-16 00:53:00,66.0,64.0,29.88,SSE,162,0.0,2.0,92,0.00,,,0.02,,2013-06-16 04:53:00,
2013-06-16 01:02:00,66.0,64.0,29.88,SE,146,1.0,3.0,93,0.00,,,0.02,,2013-06-16 05:02:00,
2013-06-16 01:12:00,66.0,64.0,29.88,SE,146,1.0,3.0,93,0.00,,,0.02,,2013-06-16 05:12:00,
2013-06-16 01:22:00,66.0,64.0,29.87,SSE,160,1.0,3.0,93,0.00,,,0.02,,2013-06-16 05:22:00,
2013-06-16 01:34:00,66.0,64.0,29.86,SSE,162,2.0,4.0,93,0.00,,,0.02,,2013-06-16 05:34:00,
2013-06-16 01:43:00,66.0,64.0,29.86,SSE,162,2.0,4.0,93,0.00,,,0.02,,2013-06-16 05:43:00,
2013-06-16 01:52:00,66.0,64.0,29.87,South,186,1.0,4.0,92,0.00,,,0.02,,2013-06-16 05:52:00,
2013-06-16 02:01:00,65.0,63.0,29.87,SSE,158,1.0,2.0,93,0.00,,,0.02,,2013-06-16 06:01:00,
2013-06-16 02:11:00,65.0,63.0,29.87,SSE,158,1.0,2.0,93,0.00,,,0.02,,2013-06-16 06:11:00,
2013-06-16 02:22:00,65.0,63.0,29.87,SSE,152,1.0,2.0,94,0.00,,,0.02,,2013-06-16 06:22:00,
2013-06-16 02:33:00,65.0,63.0,29.86,South,184,1.0,2.0,94,0.00,,,0.02,,2013-06-16 06:33:00,
2013-06-16 02:43:00,65.0,63.0,29.86,South,184,1.0,2.0,94,0.00,,,0.02,,2013-06-16 06:43:00,
2013-06-16 02:52:00,66.0,64.0,29.85,South,191,2.0,5.0,94,0.00,,,0.02,,2013-06-16 06:52:00,
2013-06-16 03:01:00,66.0,64.0,29.84,SSW,212,3.0,6.0,93,0.00,,,0.02,,2013-06-16 07:01:00,
2013-06-16 03:12:00,66.0,64.0,29.84,SSW,212,3.0,6.0,93,0.00,,,0.02,,2013-06-16 07:12:00,
2013-06-16 03:22:00,67.0,65.0,29.83,SW,231,4.0,6.0,92,0.00,,,0.02,,2013-06-16 07:22:00,
2013-06-16 03:33:00,67.0,64.0,29.84,SW,233,5.0,7.0,90,0.00,,,0.02,,2013-06-16 07:33:00,
2013-06-16 03:43:00,67.0,64.0,29.84,SW,233,5.0,7.0,90,0.00,,,0.02,,2013-06-16 07:43:00,
2013-06-16 03:53:00,68.0,65.0,29.84,WSW,238,5.0,7.0,89,0.00,,,0.02,,2013-06-16 07:53:00,
2013-06-16 04:02:00,68.0,64.0,29.83,SW,222,7.0,11.0,87,0.00,,,0.02,,2013-06-16 08:02:00,
2013-06-16 04:12:00,68.0,64.0,29.83,SW,222,7.0,11.0,87,0.00,,,0.02,,2013-06-16 08:12:00,
2013-06-16 04:22:00,69.0,64.0,29.84,West,278,5.0,13.0,85,0.00,,,0.02,,2013-06-16 08:22:00,
2013-06-16 04:33:00,69.0,65.0,29.84,West,271,6.0,15.0,88,0.03,,,0.05,,2013-06-16 08:33:00,
2013-06-16 04:43:00,69.0,65.0,29.84,West,271,6.0,15.0,88,0.03,,,0.05,,2013-06-16 08:43:00,
2013-06-16 04:54:00,69.0,66.0,29.84,SW,222,6.0,13.0,89,0.03,,,0.05,,2013-06-16 08:54:00,
2013-06-16 05:02:00,69.0,65.0,29.83,SW,235,8.0,20.0,87,0.04,,,0.06,,2013-06-16 09:02:00,
2013-06-16 05:11:00,69.0,65.0,29.83,SW,235,8.0,20.0,87,0.04,,,0.06,,2013-06-16 09:11:00,
2013-06-16 05:22:00,69.0,65.0,29.84,WNW,290,4.0,13.0,86,0.04,,,0.06,,2013-06-16 09:22:00,
2013-06-16 05:33:00,69.0,66.0,29.85,West,267,2.0,9.0,89,0.03,,,0.08,,2013-06-16 09:33:00,
2013-06-16 05:43:00,69.0,66.0,29.85,West,267,2.0,9.0,89,0.03,,,0.08,,2013-06-16 09:43:00,
2013-06-16 05:52:00,69.0,66.0,29.85,WSW,243,7.0,11.0,89,0.04,,,0.09,,2013-06-16 09:52:00,
2013-06-16 06:02:00,68.0,65.0,29.85,SW,236,3.0,9.0,90,0.03,,,0.09,,2013-06-16 10:02:00,
2013-06-16 06:12:00,68.0,65.0,29.85,SW,236,3.0,9.0,90,0.03,,,0.09,,2013-06-16 10:12:00,
2013-06-16 06:22:00,68.0,66.0,29.87,SW,236,2.0,6.0,92,0.03,,,0.09,,2013-06-16 10:22:00,
2013-06-16 06:33:00,68.0,66.0,29.86,SW,226,4.0,6.0,93,0.01,,,0.09,,2013-06-16 10:33:00,
2013-06-16 06:43:00,68.0,66.0,29.86,SW,226,4.0,6.0,93,0.01,,,0.09,,2013-06-16 10:43:00,
2013-06-16 06:54:00,68.0,66.0,29.85,SW,232,7.0,11.0,93,0.00,,,0.09,,2013-06-16 10:54:00,
2013-06-16 07:02:00,68.0,66.0,29.85,SW,236,6.0,9.0,93,0.00,,,0.09,,2013-06-16 11:02:00,
2013-06-16 07:12:00,68.0,66.0,29.85,SW,236,6.0,9.0,93,0.00,,,0.09,,2013-06-16 11:12:00,
2013-06-16 07:22:00,68.0,66.0,29.84,WSW,238,6.0,10.0,92,0.00,,,0.09,,2013-06-16 11:22:00,
2013-06-16 07:34:00,68.0,66.0,29.83,SSW,195,7.0,12.0,92,0.00,,,0.09,,2013-06-16 11:34:00,
2013-06-16 07:43:00,68.0,66.0,29.83,SSW,195,7.0,12.0,92,0.00,,,0.09,,2013-06-16 11:43:00,
2013-06-16 07:53:00,68.0,66.0,29.83,West,264,6.0,10.0,92,0.00,,,0.09,,2013-06-16 11:53:00,
2013-06-16 08:02:00,68.0,66.0,29.83,SW,233,7.0,12.0,92,0.00,,,0.09,,2013-06-16 12:02:00,
2013-06-16 08:12:00,68.0,66.0,29.83,SW,233,7.0,12.0,92,0.00,,,0.09,,2013-06-16 12:12:00,
2013-06-16 08:22:00,68.0,65.0,29.83,SW,226,5.0,11.0,91,0.00,,,0.09,,2013-06-16 12:22:00,
2013-06-16 08:32:00,68.0,65.0,29.84,SW,224,8.0,13.0,91,0.00,,,0.09,,2013-06-16 12:32:00,
2013-06-16 08:42:00,68.0,65.0,29.84,SW,224,8.0,13.0,91,0.00,,,0.09,,2013-06-16 12:42:00,
2013-06-16 08:53:00,68.0,65.0,29.85,West,277,8.0,12.0,91,0.00,,,0.09,,2013-06-16 12:53:00,
2013-06-16 09:01:00,69.0,66.0,29.85,WSW,239,7.0,15.0,90,0.00,,,0.09,,2013-06-16 13:01:00,
2013-06-16 09:12:00,69.0,66.0,29.85,WSW,239,7.0,15.0,90,0.00,,,0.09,,2013-06-16 13:12:00,
2013-06-16 09:22:00,69.0,66.0,29.85,SW,226,6.0,14.0,89,0.00,,,0.09,,2013-06-16 13:22:00,
2013-06-16 09:34:00,69.0,66.0,29.86,WSW,251,9.0,20.0,89,0.01,,,0.10,,2013-06-16 13:34:00,
2013-06-16 09:43:00,69.0,66.0,29.86,WSW,251,9.0,20.0,89,0.01,,,0.10,,2013-06-16 13:43:00,
2013-06-16 09:54:00,68.0,66.0,29.86,SW,234,6.0,13.0,93,0.06,,,0.15,,2013-06-16 13:54:00,
2013-06-16 10:02:00,68.0,66.0,29.86,WSW,245,7.0,13.0,92,0.06,,,0.15,,2013-06-16 14:02:00,
2013-06-16 10:12:00,68.0,66.0,29.86,WSW,245,7.0,13.0,92,0.06,,,0.15,,2013-06-16 14:12:00,
2013-06-16 10:22:00,69.0,67.0,29.86,West,259,5.0,16.0,92,0.06,,,0.15,,2013-06-16 14:22:00,
2013-06-16 10:34:00,70.0,67.0,29.86,WSW,243,7.0,14.0,91,0.05,,,0.15,,2013-06-16 14:34:00,
2013-06-16 10:43:00,70.0,67.0,29.86,WSW,243,7.0,14.0,91,0.05,,,0.15,,2013-06-16 14:43:00,
2013-06-16 10:53:00,71.0,68.0,29.85,West,277,8.0,15.0,89,0.00,,,0.15,,2013-06-16 14:53:00,
2013-06-16 11:02:00,72.0,67.0,29.85,WSW,255,9.0,16.0,85,0.00,,,0.15,,2013-06-16 15:02:00,
2013-06-16 11:12:00,72.0,67.0,29.85,WSW,255,9.0,16.0,85,0.00,,,0.15,,2013-06-16 15:12:00,
2013-06-16 11:23:00,73.0,67.0,29.85,WSW,238,10.0,19.0,82,0.00,,,0.15,,2013-06-16 15:23:00,
2013-06-16 11:34:00,74.0,68.0,29.85,WSW,240,9.0,16.0,81,0.00,,,0.15,,2013-06-16 15:34:00,
2013-06-16 11:43:00,74.0,68.0,29.85,WSW,240,9.0,16.0,81,0.00,,,0.15,,2013-06-16 15:43:00,
2013-06-16 11:53:00,74.0,67.0,29.85,West,264,7.0,16.0,80,0.00,,,0.15,,2013-06-16 15:53:00,
2013-06-16 12:02:00,75.0,69.0,29.85,WNW,285,4.0,13.0,81,0.00,,,0.15,,2013-06-16 16:02:00,
2013-06-16 12:12:00,75.0,69.0,29.85,WNW,285,4.0,13.0,81,0.00,,,0.15,,2013-06-16 16:12:00,
2013-06-16 12:23:00,75.0,68.0,29.85,West,271,6.0,13.0,79,0.00,,,0.15,,2013-06-16 16:23:00,
2013-06-16 12:33:00,76.0,69.0,29.85,West,261,6.0,13.0,79,0.00,,,0.15,,2013-06-16 16:33:00,
2013-06-16 12:43:00,76.0,69.0,29.85,West,261,6.0,13.0,79,0.00,,,0.15,,2013-06-16 16:43:00,
2013-06-16 12:53:00,76.0,68.0,29.86,NW,307,8.0,12.0,77,0.00,,,0.15,,2013-06-16 16:53:00,
2013-06-16 13:02:00,76.0,68.0,29.86,West,264,7.0,13.0,77,0.00,,,0.15,,2013-06-16 17:02:00,
2013-06-16 13:12:00,76.0,68.0,29.86,West,264,7.0,13.0,77,0.00,,,0.15,,2013-06-16 17:12:00,
2013-06-16 13:22:00,77.0,70.0,29.85,West,270,6.0,12.0,78,0.00,,,0.15,,2013-06-16 17:22:00,
2013-06-16 13:34:00,77.0,68.0,29.85,West,259,7.0,12.0,75,0.00,,,0.15,,2013-06-16 17:34:00,
2013-06-16 13:43:00,77.0,68.0,29.85,West,259,7.0,12.0,75,0.00,,,0.15,,2013-06-16 17:43:00,
2013-06-16 13:53:00,77.0,68.0,29.85,WSW,241,6.0,13.0,75,0.00,,,0.15,,2013-06-16 17:53:00,
2013-06-16 14:02:00,78.0,69.0,29.85,West,262,7.0,13.0,75,0.00,,,0.15,,2013-06-16 18:02:00,
2013-06-16 14:12:00,78.0,69.0,29.85,West,262,7.0,13.0,75,0.00,,,0.15,,2013-06-16 18:12:00,
2013-06-16 14:22:00,77.0,69.0,29.85,WSW,243,7.0,14.0,76,0.00,,,0.15,,2013-06-16 18:22:00,
2013-06-16 14:33:00,78.0,69.0,29.85,WSW,245,5.0,15.0,75,0.00,,,0.15,,2013-06-16 18:33:00,
2013-06-16 14:43:00,78.0,69.0,29.85,WSW,245,5.0,15.0,75,0.00,,,0.15,,2013-06-16 18:43:00,
2013-06-16 14:52:00,79.0,70.0,29.85,WSW,257,9.0,19.0,73,0.00,,,0.15,,2013-06-16 18:52:00,
2013-06-16 15:01:00,79.0,70.0,29.85,West,260,9.0,20.0,74,0.00,,,0.15,,2013-06-16 19:01:00,
2013-06-16 15:11:00,79.0,70.0,29.85,West,260,9.0,20.0,74,0.00,,,0.15,,2013-06-16 19:11:00,
2013-06-16 15:22:00,79.0,69.0,29.85,West,264,11.0,20.0,72,0.00,,,0.15,,2013-06-16 19:22:00,
2013-06-16 15:34:00,79.0,69.0,29.85,WSW,256,9.0,17.0,72,0.00,,,0.15,,2013-06-16 19:34:00,
2013-06-16 15:43:00,79.0,69.0,29.85,WSW,256,9.0,17.0,72,0.00,,,0.15,,2013-06-16 19:43:00,
2013-06-16 15:54:00,79.0,69.0,29.84,SSW,212,5.0,15.0,71,0.00,,,0.15,,2013-06-16 19:54:00,
2013-06-16 16:02:00,80.0,71.0,29.84,WNW,302,8.0,15.0,73,0.00,,,0.15,,2013-06-16 20:02:00,
2013-06-16 16:12:00,80.0,71.0,29.84,WNW,302,8.0,15.0,73,0.00,,,0.15,,2013-06-16 20:12:00,
2013-06-16 16:22:00,80.0,69.0,29.85,West,263,7.0,21.0,70,0.00,,,0.15,,2013-06-16 20:22:00,
2013-06-16 16:33:00,80.0,68.0,29.85,West,274,6.0,16.0,68,0.00,,,0.15,,2013-06-16 20:33:00,
2013-06-16 16:42:00,80.0,68.0,29.85,West,274,6.0,16.0,68,0.00,,,0.15,,2013-06-16 20:42:00,
2013-06-16 16:53:00,79.0,69.0,29.85,WSW,238,8.0,18.0,71,0.00,,,0.15,,2013-06-16 20:53:00,
2013-06-16 17:02:00,80.0,68.0,29.84,SW,229,7.0,15.0,68,0.00,,,0.15,,2013-06-16 21:02:00,
2013-06-16 17:11:00,80.0,68.0,29.84,SW,229,7.0,15.0,68,0.00,,,0.15,,2013-06-16 21:11:00,
2013-06-16 17:22:00,80.0,68.0,29.84,SW,229,7.0,15.0,68,0.00,,,0.15,,2013-06-16 21:22:00,
2013-06-16 17:33:00,79.0,68.0,29.84,WSW,249,7.0,12.0,70,0.00,,,0.13,,2013-06-16 21:33:00,
2013-06-16 17:42:00,79.0,68.0,29.84,WSW,249,7.0,12.0,70,0.00,,,0.13,,2013-06-16 21:42:00,
2013-06-16 17:53:00,80.0,69.0,29.84,WNW,283,9.0,17.0,69,0.00,,,0.13,,2013-06-16 21:53:00,
2013-06-16 18:01:00,80.0,69.0,29.84,West,264,9.0,17.0,70,0.00,,,0.13,,2013-06-16 22:01:00,
2013-06-16 18:12:00,80.0,69.0,29.84,West,264,9.0,17.0,70,0.00,,,0.13,,2013-06-16 22:12:00,
2013-06-16 18:22:00,79.0,70.0,29.84,WNW,288,8.0,17.0,73,0.00,,,0.13,,2013-06-16 22:22:00,
2013-06-16 18:32:00,79.0,68.0,29.83,SW,229,6.0,12.0,70,0.00,,,0.13,,2013-06-16 22:32:00,
2013-06-16 18:42:00,79.0,68.0,29.83,SW,229,6.0,12.0,70,0.00,,,0.13,,2013-06-16 22:42:00,
2013-06-16 18:52:00,79.0,68.0,29.84,West,276,7.0,15.0,70,0.00,,,0.13,,2013-06-16 22:52:00,
2013-06-16 19:02:00,79.0,69.0,29.84,WSW,243,9.0,15.0,72,0.00,,,0.13,,2013-06-16 23:02:00,
2013-06-16 19:11:00,79.0,69.0,29.84,WSW,243,9.0,15.0,72,0.00,,,0.13,,2013-06-16 23:11:00,
2013-06-16 19:22:00,78.0,69.0,29.84,WSW,254,5.0,14.0,74,0.00,,,0.13,,2013-06-16 23:22:00,
2013-06-16 19:32:00,78.0,69.0,29.83,West,277,5.0,11.0,75,0.00,,,0.13,,2013-06-16 23:32:00,
2013-06-16 19:42:00,78.0,69.0,29.83,West,277,5.0,11.0,75,0.00,,,0.13,,2013-06-16 23:42:00,
2013-06-16 19:52:00,78.0,70.0,29.84,SW,217,5.0,13.0,77,0.00,,,0.13,,2013-06-16 23:52:00,
2013-06-16 20:02:00,78.0,67.0,29.84,SW,221,6.0,13.0,70,0.00,,,0.13,,2013-06-17 00:02:00,
2013-06-16 20:11:00,78.0,67.0,29.84,SW,221,6.0,13.0,70,0.00,,,0.13,,2013-06-17 00:11:00,
2013-06-16 20:22:00,78.0,68.0,29.85,West,277,5.0,9.0,72,0.00,,,0.13,,2013-06-17 00:22:00,
2013-06-16 20:32:00,77.0,68.0,29.85,WSW,245,6.0,11.0,75,0.00,,,0.13,,2013-06-17 00:32:00,
2013-06-16 20:43:00,77.0,68.0,29.85,WSW,245,6.0,11.0,75,0.00,,,0.13,,2013-06-17 00:43:00,
2013-06-16 20:52:00,76.0,69.0,29.85,West,277,2.0,7.0,78,0.00,,,0.13,,2013-06-17 00:52:00,
2013-06-16 21:02:00,76.0,69.0,29.85,WSW,243,2.0,6.0,80,0.00,,,0.13,,2013-06-17 01:02:00,
2013-06-16 21:12:00,76.0,69.0,29.85,WSW,243,2.0,6.0,80,0.00,,,0.13,,2013-06-17 01:12:00,
2013-06-16 21:22:00,75.0,69.0,29.85,WSW,246,1.0,4.0,82,0.00,,,0.13,,2013-06-17 01:22:00,
2013-06-16 21:32:00,74.0,68.0,29.84,WSW,246,1.0,4.0,83,0.00,,,0.13,,2013-06-17 01:32:00,
2013-06-16 21:43:00,74.0,68.0,29.84,WSW,246,1.0,4.0,83,0.00,,,0.13,,2013-06-17 01:43:00,
2013-06-16 21:53:00,74.0,69.0,29.85,WSW,248,1.0,3.0,85,0.00,,,0.13,,2013-06-17 01:53:00,
2013-06-16 22:02:00,73.0,69.0,29.84,WSW,254,0.0,2.0,86,0.00,,,0.13,,2013-06-17 02:02:00,
2013-06-16 22:12:00,73.0,69.0,29.84,WSW,254,0.0,2.0,86,0.00,,,0.13,,2013-06-17 02:12:00,
2013-06-16 22:22:00,72.0,68.0,29.85,WSW,238,1.0,2.0,87,0.00,,,0.13,,2013-06-17 02:22:00,
2013-06-16 22:34:00,72.0,68.0,29.85,SW,235,0.0,3.0,87,0.00,,,0.13,,2013-06-17 02:34:00,
2013-06-16 22:43:00,72.0,68.0,29.85,SW,235,0.0,3.0,87,0.00,,,0.13,,2013-06-17 02:43:00,
2013-06-16 22:53:00,72.0,68.0,29.86,SW,235,0.0,2.0,88,0.00,,,0.13,,2013-06-17 02:53:00,
2013-06-16 23:02:00,71.0,68.0,29.86,West,268,0.0,2.0,89,0.00,,,0.13,,2013-06-17 03:02:00,
2013-06-16 23:12:00,71.0,68.0,29.86,West,268,0.0,2.0,89,0.00,,,0.13,,2013-06-17 03:12:00,
2013-06-16 23:22:00,70.0,67.0,29.87,WSW,238,0.0,1.0,90,0.00,,,0.13,,2013-06-17 03:22:00,
2013-06-16 23:33:00,70.0,67.0,29.87,SW,224,1.0,2.0,91,0.00,,,0.13,,2013-06-17 03:33:00,
2013-06-16 23:44:00,70.0,67.0,29.87,SW,224,1.0,2.0,91,0.00,,,0.13,,2013-06-17 03:44:00,
2013-06-16 23:54:00,70.0,67.0,29.87,NNW,345,0.0,4.0,91,0.00,,,0.13,,2013-06-17 03:54:00,